TimeEST,TemperatureF,Dew PointF,Humidity,Sea Level PressureIn,VisibilityMPH,Wind Direction,Wind SpeedMPH,Gust SpeedMPH,PrecipitationIn,Events,Conditions,WindDirDegrees,DateUTC
12:15 AM,53.6,46.4,77,30.12,10.0,West,4.6,-,N/A,,Clear,280,2013-02-04 05:15:00
12:35 AM,53.6,46.4,77,30.12,10.0,WNW,5.8,-,N/A,,Clear,290,2013-02-04 05:35:00
12:55 AM,53.6,46.4,77,30.12,10.0,West,4.6,-,N/A,,Clear,280,2013-02-04 05:55:00
1:15 AM,53.6,46.4,77,30.12,10.0,WNW,5.8,-,N/A,,Clear,290,2013-02-04 06:15:00
1:35 AM,53.6,44.6,72,30.12,10.0,WNW,4.6,-,N/A,,Clear,290,2013-02-04 06:35:00
1:55 AM,53.6,44.6,72,30.12,10.0,NW,3.5,-,N/A,,Clear,310,2013-02-04 06:55:00
2:15 AM,51.8,44.6,76,30.12,10.0,WNW,3.5,-,N/A,,Clear,290,2013-02-04 07:15:00
2:35 AM,53.6,41.0,62,30.12,10.0,NNW,6.9,-,N/A,,Clear,330,2013-02-04 07:35:00
2:55 AM,53.6,41.0,62,30.12,10.0,NW,5.8,-,N/A,,Clear,310,2013-02-04 07:55:00
3:15 AM,51.8,41.0,67,30.12,10.0,NW,4.6,-,N/A,,Clear,320,2013-02-04 08:15:00
3:35 AM,51.8,41.0,67,30.12,10.0,NNW,5.8,-,N/A,,Clear,330,2013-02-04 08:35:00
3:55 AM,51.8,41.0,67,30.12,10.0,NW,3.5,-,N/A,,Clear,320,2013-02-04 08:55:00
4:15 AM,51.8,39.2,62,30.12,10.0,NW,5.8,-,N/A,,Clear,320,2013-02-04 09:15:00
6:47 AM,48.2,41.0,76,30.12,10.0,NW,5.8,-,N/A,,Partly Cloudy,320,2013-02-04 11:47:00
7:47 AM,50.0,44.6,82,30.14,10.0,West,4.6,-,N/A,,Scattered Clouds,280,2013-02-04 12:47:00
8:47 AM,53.6,46.4,77,30.15,10.0,West,4.6,-,N/A,,Partly Cloudy,280,2013-02-04 13:47:00
9:47 AM,59.0,32.0,36,30.16,10.0,West,3.5,-,N/A,,Partly Cloudy,280,2013-02-04 14:47:00
10:47 AM,64.4,44.6,49,30.16,10.0,Variable,3.5,-,N/A,,Partly Cloudy,0,2013-02-04 15:47:00
11:47 AM,68.0,35.6,30,30.13,10.0,Variable,5.8,-,N/A,,Partly Cloudy,0,2013-02-04 16:47:00
12:47 PM,71.6,68.0,88,30.10,10.0,SE,11.5,18.4,N/A,,Partly Cloudy,140,2013-02-04 17:47:00
1:47 PM,71.6,30.2,22,30.06,10.0,SSE,4.6,-,N/A,,Partly Cloudy,160,2013-02-04 18:47:00
2:47 PM,73.4,24.8,16,30.04,10.0,South,6.9,-,N/A,,Partly Cloudy,190,2013-02-04 19:47:00
4:47 PM,73.4,30.2,20,30.04,10.0,South,10.4,-,N/A,,Clear,180,2013-02-04 21:47:00
5:47 PM,71.6,30.2,22,30.06,10.0,South,5.8,-,N/A,,Clear,180,2013-02-04 22:47:00
7:15 PM,60.8,33.8,36,30.07,10.0,Calm,Calm,-,N/A,,Clear,0,2013-02-05 00:15:00
7:35 PM,60.8,33.8,36,30.08,10.0,Calm,Calm,-,N/A,,Clear,0,2013-02-05 00:35:00
7:55 PM,59.0,33.8,39,30.09,10.0,Calm,Calm,-,N/A,,Clear,0,2013-02-05 00:55:00
8:15 PM,57.2,37.4,48,30.09,10.0,Calm,Calm,-,N/A,,Clear,0,2013-02-05 01:15:00
8:35 PM,55.4,41.0,58,30.09,10.0,SE,3.5,-,N/A,,Clear,140,2013-02-05 01:35:00
8:55 PM,59.0,35.6,42,30.10,10.0,Calm,Calm,-,N/A,,Clear,0,2013-02-05 01:55:00
9:15 PM,55.4,39.2,54,30.10,10.0,Calm,Calm,-,N/A,,Clear,0,2013-02-05 02:15:00
9:55 PM,53.6,37.4,54,30.10,10.0,Calm,Calm,-,N/A,,Clear,0,2013-02-05 02:55:00
10:15 PM,53.6,37.4,54,30.10,10.0,Calm,Calm,-,N/A,,Clear,0,2013-02-05 03:15:00
10:35 PM,53.6,37.4,54,30.10,10.0,Calm,Calm,-,N/A,,Clear,0,2013-02-05 03:35:00
10:55 PM,53.6,37.4,54,30.10,10.0,Calm,Calm,-,N/A,,Clear,0,2013-02-05 03:55:00
11:15 PM,51.8,37.4,58,30.10,10.0,Calm,Calm,-,N/A,,Clear,0,2013-02-05 04:15:00
11:35 PM,51.8,39.2,62,30.10,10.0,Calm,Calm,-,N/A,,Clear,0,2013-02-05 04:35:00
11:55 PM,51.8,39.2,62,30.09,10.0,Calm,Calm,-,N/A,,Clear,0,2013-02-05 04:55:00